Location: Aragoneses
(41.0275°N, 4.3847°W)
Time: 21:32:28
(UTC+00:00)

USA 238 - Pass Details

Date: 11 December 2025
Orbit: 883 x 1328 km, 63.4° (Epoch: 10 January)

Event Time Altitude Azimuth Distance (km) Brightness Sun altitude
Rises 18:28:34 0° 218° (SW) 3,496 7.3 -18.1°
Reaches altitude 10° 18:31:00 10° 219° (SW) 2,585 6.5 -18.5°
Maximum altitude 18:36:59 77° 306° (NW) 985 3.5 -19.6°
Enters shadow 18:41:25 22° 30° (NNE) 2,055 4.8 -20.4°
